GW1008 Weather Reports


Display with metric or nautical units.
time (UTC)temp
F
wind
direction
speed
MPH
gust
MPH
rain 1hr
in
rain 24hr
in
rain mn
in
humidity
%
barometer
mb
20260901210033 45 0 0.0 0.0 0.00 0.00 0.00 80 1012.3
20260901205518 45 0 0.0 0.0 0.00 0.00 0.00 79 1012.4
20260901205017 45 0 0.0 0.0 0.00 0.00 0.00 78 1012.4
20260901204535 45 0 0.0 0.0 0.00 0.00 0.00 78 1012.4
20260901204015 46 0 0.0 0.0 0.00 0.00 0.00 77 1012.4
20260901203518 46 0 0.0 0.0 0.00 0.00 0.00 76 1012.3
20260901203047 46 0 0.0 0.0 0.00 0.00 0.00 76 1012.2
20260901202516 47 0 0.0 0.0 0.00 0.00 0.00 76 1012.4
20260901202023 47 0 0.0 0.0 0.00 0.00 0.00 75 1012.3
20260901201543 48 0 0.0 0.0 0.00 0.00 0.00 74 1012.2
20260901201017 49 0 0.0 0.0 0.00 0.00 0.00 73 1012.3
20260901200517 49 0 0.0 0.0 0.00 0.00 0.00 73 1012.2
20260901200034 50 0 0.0 2.0 0.00 0.00 0.00 73 1012.2
20260901195516 50 0 0.0 2.0 0.00 0.00 0.00 73 1012.0
20260901195019 50 0 0.0 2.0 0.00 0.00 0.00 72 1011.9
20260901194533 51 0 0.0 0.0 0.00 0.00 0.00 72 1011.9
20260901194018 51 0 0.0 0.0 0.00 0.00 0.00 72 1011.9
20260901193518 51 0 0.0 0.0 0.00 0.00 0.00 71 1011.8
20260901193032 52 0 0.0 0.0 0.00 0.00 0.00 70 1011.7
20260901192517 52 0 0.0 0.0 0.00 0.00 0.00 70 1011.6
20260901192020 53 0 0.0 0.0 0.00 0.00 0.00 69 1011.7
20260901191532 53 0 0.0 4.0 0.00 0.00 0.00 68 1011.5
20260901191018 54 0 0.0 4.0 0.00 0.00 0.00 68 1011.5
20260901190549 54 0 0.0 2.0 0.00 0.00 0.00 68 1011.6
20260901190041 55 0 0.0 5.0 0.00 0.00 0.00 67 1011.4
20260901185517 55 287 0.0 5.0 0.00 0.00 0.00 66 1011.4
20260901185019 55 0 0.0 4.0 0.00 0.00 0.00 66 1011.4
20260901184531 56 0 0.0 8.0 0.00 0.00 0.00 65 1011.3
20260901184016 56 0 0.0 8.0 0.00 0.00 0.00 65 1011.3
20260901183515 56 0 0.0 7.0 0.00 0.00 0.00 65 1011.2
20260901183036 57 0 0.0 8.0 0.00 0.00 0.00 64 1011.2
20260901182516 57 0 0.0 8.0 0.00 0.00 0.00 64 1011.1
20260901182016 58 267 1.0 8.0 0.00 0.00 0.00 63 1011.1
20260901181538 58 0 0.0 8.0 0.00 0.00 0.00 62 1011.0
20260901181018 59 0 1.0 7.0 0.00 0.00 0.00 62 1010.9
20260901180516 59 265 0.0 7.0 0.00 0.00 0.00 61 1010.9
20260901180033 60 241 0.0 10.0 0.00 0.00 0.00 61 1011.0
20260901175519 60 281 1.0 10.0 0.00 0.00 0.00 60 1010.9
20260901175017 60 276 0.0 6.0 0.00 0.00 0.00 60 1010.9
20260901174533 60 282 0.0 7.0 0.00 0.00 0.00 61 1010.9
20260901174019 60 287 0.0 13.0 0.00 0.00 0.00 60 1010.8
20260901173518 61 0 1.0 13.0 0.00 0.00 0.00 59 1010.9
20260901173033 61 284 1.0 13.0 0.00 0.00 0.00 57 1010.7
20260901172516 61 0 0.0 9.0 0.00 0.00 0.00 59 1010.8
20260901172016 61 0 1.0 9.0 0.00 0.00 0.00 58 1010.8
20260901171530 62 271 1.0 9.0 0.00 0.00 0.00 57 1010.7
20260901171017 62 0 1.0 9.0 0.00 0.00 0.00 57 1010.7
20260901170522 62 0 0.0 9.0 0.00 0.00 0.00 57 1010.6
20260901170031 63 0 1.0 9.0 0.00 0.00 0.00 56 1010.7
20260901165517 62 0 0.0 9.0 0.00 0.00 0.00 57 1010.6
20260901165015 62 0 1.0 11.0 0.00 0.00 0.00 56 1010.6
20260901164532 62 310 0.0 11.0 0.00 0.00 0.00 56 1010.4
20260901164016 62 259 1.0 12.0 0.00 0.00 0.00 56 1010.3
20260901163517 62 288 1.0 12.0 0.00 0.00 0.00 56 1010.2
20260901163033 62 0 3.0 15.0 0.00 0.00 0.00 55 1010.2
20260901162519 63 296 3.0 15.0 0.00 0.00 0.00 55 1010.1
20260901162016 63 284 4.0 15.0 0.00 0.00 0.00 54 1010.1
20260901161538 63 0 0.0 10.0 0.00 0.00 0.00 56 1010.1
20260901161016 64 305 1.0 13.0 0.00 0.00 0.00 55 1010.0
20260901160517 64 289 1.0 13.0 0.00 0.00 0.00 55 1010.1
20260901160048 64 0 2.0 13.0 0.00 0.00 0.00 55 1009.9
20260901155517 65 299 1.0 15.0 0.00 0.00 0.00 55 1009.9
20260901155022 66 280 4.0 15.0 0.00 0.00 0.00 53 1009.9
20260901154534 66 0 2.0 15.0 0.00 0.00 0.00 53 1009.8
20260901154019 67 292 0.0 11.0 0.00 0.00 0.00 55 1009.7
20260901153519 67 259 2.0 15.0 0.00 0.00 0.00 54 1009.8
20260901153037 67 276 4.0 15.0 0.00 0.00 0.00 53 1009.7
20260901152522 67 276 1.0 14.0 0.00 0.00 0.00 53 1009.7
20260901152017 67 0 2.0 14.0 0.00 0.00 0.00 52 1009.6
20260901151531 67 292 2.0 15.0 0.00 0.00 0.00 54 1009.5
20260901151020 67 0 2.0 15.0 0.00 0.00 0.00 52 1009.5
20260901150517 67 286 4.0 15.0 0.00 0.00 0.00 52 1009.5
20260901150037 68 5 3.0 15.0 0.00 0.00 0.00 52 1009.4
20260901145517 68 286 2.0 24.0 0.00 0.00 0.00 55 1009.4
20260901145016 68 0 2.0 24.0 0.00 0.00 0.00 55 1009.4
20260901144536 68 293 4.0 14.0 0.00 0.00 0.00 54 1009.3
20260901144018 68 284 3.0 14.0 0.00 0.00 0.00 54 1009.3
20260901143516 68 0 2.0 19.0 0.00 0.00 0.00 58 1009.2
20260901143034 68 291 2.0 19.0 0.00 0.00 0.00 57 1009.0
20260901142515 68 258 1.0 16.0 0.00 0.00 0.00 61 1009.0
20260901142016 68 0 2.0 12.0 0.00 0.00 0.00 61 1009.0
20260901141536 68 331 2.0 14.0 0.00 0.00 0.00 62 1009.0
20260901141016 67 277 2.0 14.0 0.00 0.00 0.00 64 1009.0
20260901140517 67 317 2.0 12.0 0.00 0.00 0.00 64 1008.9
20260901140033 66 288 3.0 12.0 0.00 0.00 0.00 65 1008.7
20260901135520 67 284 5.0 15.0 0.00 0.00 0.00 62 1008.9
20260901135018 67 295 2.0 15.0 0.00 0.00 0.00 62 1008.8
20260901134551 68 295 1.0 16.0 0.00 0.00 0.00 65 1008.9
20260901134016 68 276 1.0 16.0 0.00 0.00 0.00 63 1008.7
20260901133516 68 318 4.0 16.0 0.00 0.00 0.00 63 1008.6
20260901133036 68 0 1.0 13.0 0.00 0.00 0.00 65 1008.6
20260901132518 68 0 3.0 13.0 0.00 0.00 0.00 64 1008.7
20260901132019 68 274 2.0 14.0 0.00 0.00 0.00 64 1008.4
20260901131536 69 298 3.0 14.0 0.00 0.00 0.00 64 1008.4
20260901131017 69 0 1.0 14.0 0.00 0.00 0.00 64 1008.1
20260901130519 68 0 4.0 14.0 0.00 0.00 0.00 62 1008.2
20260901130034 67 312 2.0 15.0 0.00 0.00 0.00 63 1008.1
20260901125517 67 277 7.0 17.0 0.00 0.00 0.00 63 1008.1
20260901125017 66 294 7.0 17.0 0.00 0.00 0.00 65 1007.9
20260901124538 65 291 4.0 15.0 0.00 0.00 0.00 66 1007.9
20260901124017 65 300 2.0 8.0 0.00 0.00 0.00 70 1007.7
20260901123516 65 227 0.0 6.0 0.00 0.00 0.00 74 1007.7
20260901123031 64 0 0.0 6.0 0.00 0.00 0.00 76 1007.8
20260901122515 64 0 0.0 6.0 0.00 0.00 0.00 77 1007.7
20260901122018 64 0 0.0 6.0 0.00 0.00 0.00 77 1007.8
20260901121534 64 0 0.0 7.0 0.00 0.00 0.00 78 1007.8
20260901121017 63 265 0.0 12.0 0.00 0.00 0.00 81 1007.8
20260901120520 63 286 0.0 12.0 0.00 0.00 0.00 78 1007.9
20260901120035 64 265 2.0 15.0 0.00 0.00 0.00 76 1007.7
20260901115517 65 0 3.0 15.0 0.00 0.00 0.00 73 1007.6
20260901115023 66 242 3.0 15.0 0.00 0.00 0.00 68 1007.5
20260901114539 67 256 1.0 10.0 0.00 0.00 0.00 67 1007.4
20260901114016 68 252 1.0 13.0 0.00 0.00 0.00 67 1007.3
20260901113521 67 261 1.0 15.0 0.00 0.00 0.00 70 1007.4
20260901113053 67 321 2.0 15.0 0.00 0.00 0.00 70 1007.3
20260901112516 67 252 1.0 12.0 0.00 0.00 0.00 68 1007.4
20260901112016 67 0 2.0 19.0 0.00 0.00 0.00 69 1007.4
20260901111536 66 0 3.0 19.0 0.00 0.00 0.00 68 1007.4
20260901111018 66 247 6.0 17.0 0.00 0.00 0.00 70 1007.5
20260901110516 65 267 5.0 17.0 0.00 0.00 0.00 71 1007.5
20260901110034 64 259 3.0 14.0 0.00 0.00 0.00 74 1007.5
20260901105519 62 0 1.0 14.0 0.00 0.00 0.00 75 1007.6
20260901105017 61 0 3.0 14.0 0.00 0.00 0.00 75 1007.6
20260901104535 61 0 1.0 13.0 0.00 0.00 0.00 75 1007.6
20260901104018 60 0 1.0 13.0 0.00 0.00 0.00 75 1007.7
20260901103517 60 0 3.0 13.0 0.00 0.00 0.00 75 1007.7
20260901103033 60 248 2.0 13.0 0.00 0.00 0.00 74 1007.5
20260901102522 60 262 5.0 13.0 0.00 0.00 0.00 75 1007.6
20260901102018 60 0 1.0 12.0 0.00 0.00 0.00 75 1007.7
20260901101546 60 0 1.0 12.0 0.00 0.00 0.00 76 1007.6
20260901101017 59 0 1.0 9.0 0.00 0.00 0.00 76 1007.8
20260901100517 59 319 1.0 8.0 0.00 0.00 0.00 77 1007.7
20260901100032 59 0 1.0 7.0 0.00 0.00 0.00 77 1007.8
20260901095519 59 0 0.0 8.0 0.00 0.00 0.00 77 1007.9
20260901095017 59 0 0.0 10.0 0.00 0.00 0.00 77 1008.0
20260901094534 58 234 1.0 10.0 0.00 0.00 0.00 78 1008.0
20260901094016 58 221 1.0 8.0 0.00 0.00 0.00 78 1008.1
20260901093517 58 0 1.0 8.0 0.00 0.00 0.00 78 1008.1
20260901093034 58 229 1.0 8.0 0.00 0.00 0.00 78 1008.1
20260901092515 58 0 0.0 8.0 0.00 0.00 0.00 78 1008.1
20260901092017 58 0 0.0 3.0 0.00 0.00 0.00 79 1008.1
20260901091536 58 0 0.0 6.0 0.00 0.00 0.00 79 1008.1
20260901091018 58 0 0.0 6.0 0.00 0.00 0.00 80 1008.1
20260901090516 57 0 0.0 7.0 0.00 0.00 0.00 79 1008.2
20260901090034 57 0 0.0 7.0 0.00 0.00 0.00 79 1008.1
20260901085515 57 0 0.0 9.0 0.00 0.00 0.00 79 1008.0
20260901085018 57 180 1.0 9.0 0.00 0.00 0.00 79 1008.2
20260901084541 57 0 0.0 5.0 0.00 0.00 0.00 80 1008.0
20260901084018 57 0 0.0 5.0 0.00 0.00 0.00 80 1008.1
20260901083519 56 0 0.0 6.0 0.00 0.00 0.00 80 1008.4
20260901083037 56 0 0.0 6.0 0.00 0.00 0.00 80 1008.5
20260901082516 56 0 0.0 7.0 0.00 0.00 0.00 80 1008.6
20260901082019 56 0 0.0 9.0 0.00 0.00 0.00 80 1008.7
20260901081534 56 191 0.0 9.0 0.00 0.00 0.00 80 1008.7
20260901081018 56 0 1.0 6.0 0.00 0.00 0.00 80 1008.8
20260901080516 56 0 0.0 5.0 0.00 0.00 0.00 80 1008.9
20260901080040 56 0 0.0 6.0 0.00 0.00 0.00 79 1008.9
20260901075515 56 0 0.0 10.0 0.00 0.00 0.00 79 1009.0
20260901075020 56 189 1.0 13.0 0.00 0.00 0.00 79 1009.1
20260901074533 56 0 2.0 13.0 0.00 0.00 0.00 78 1009.1
20260901074018 56 0 2.0 12.0 0.00 0.00 0.00 79 1009.1
20260901073515 55 217 1.0 12.0 0.00 0.00 0.00 80 1009.1
20260901073037 55 278 1.0 12.0 0.00 0.00 0.00 80 1009.1
20260901072518 55 0 1.0 10.0 0.00 0.00 0.00 80 1009.0
20260901072016 55 0 0.0 11.0 0.00 0.00 0.00 81 1009.1
20260901071531 55 249 0.0 11.0 0.00 0.00 0.00 80 1009.2
20260901071016 55 258 0.0 10.0 0.00 0.00 0.00 80 1009.0
20260901070516 55 0 0.0 5.0 0.00 0.00 0.00 81 1009.3
20260901070032 55 0 0.0 3.0 0.00 0.00 0.00 81 1009.3
20260901065518 55 0 0.0 2.0 0.00 0.00 0.00 81 1009.4
20260901065018 55 0 0.0 3.0 0.00 0.00 0.00 80 1009.4
20260901064536 55 0 0.0 4.0 0.00 0.00 0.00 80 1009.6
20260901064016 55 0 0.0 4.0 0.00 0.00 0.00 79 1009.5
20260901063518 55 0 0.0 4.0 0.00 0.00 0.00 79 1009.5
20260901063034 55 0 0.0 3.0 0.00 0.00 0.00 80 1009.4
20260901062518 55 0 0.0 4.0 0.00 0.00 0.00 80 1009.4
20260901062026 54 0 0.0 5.0 0.00 0.00 0.00 80 1009.4
20260901061534 54 170 0.0 5.0 0.00 0.00 0.00 82 1009.5
20260901061017 54 0 0.0 0.0 0.00 0.00 0.00 83 1009.7
20260901060518 53 0 0.0 0.0 0.00 0.00 0.00 83 1009.6
20260901060032 53 0 0.0 0.0 0.00 0.00 0.00 83 1009.7
20260901055517 53 0 0.0 2.0 0.00 0.00 0.00 84 1009.7
20260901055022 52 0 0.0 2.0 0.00 0.00 0.00 85 1009.8
20260901054531 52 0 0.0 6.0 0.00 0.00 0.00 85 1009.8
20260901054024 51 0 0.0 7.0 0.00 0.00 0.00 85 1009.8
20260901053520 51 0 0.0 7.0 0.00 0.00 0.00 85 1009.9
20260901053053 51 0 0.0 2.0 0.00 0.00 0.00 85 1009.9
20260901052519 51 0 0.0 4.0 0.00 0.00 0.00 85 1010.0
20260901052015 51 0 0.0 4.0 0.00 0.00 0.00 84 1010.1
20260901051531 51 260 0.0 7.0 0.00 0.00 0.00 84 1010.1
20260901051018 51 0 0.0 7.0 0.00 0.00 0.00 84 1010.2
20260901050518 50 0 0.0 8.0 0.00 0.00 0.00 84 1010.5
20260901050031 50 0 0.0 8.0 0.00 0.00 0.00 84 1010.4
20260901045515 50 219 0.0 8.0 0.00 0.00 0.00 84 1010.5
20260901045016 50 226 0.0 4.0 0.00 0.00 0.00 84 1010.4
20260901044545 50 0 0.0 2.0 0.00 0.00 0.00 83 1010.4
20260901044019 50 0 0.0 2.0 0.00 0.00 0.00 83 1010.6
20260901043518 50 0 0.0 3.0 0.00 0.00 0.00 83 1010.8
20260901043038 50 0 0.0 3.0 0.00 0.00 0.00 83 1010.7
20260901042527 50 0 0.0 3.0 0.00 0.00 0.00 83 1010.6
20260901042024 51 0 0.0 2.0 0.00 0.00 0.00 83 1010.7
20260901041535 51 0 0.0 2.0 0.00 0.00 0.00 83 1010.7
20260901041017 51 0 0.0 0.0 0.00 0.00 0.00 83 1010.7
20260901040515 51 0 0.0 0.0 0.00 0.00 0.00 83 1010.7
20260901040032 51 0 0.0 7.0 0.00 0.00 0.00 83 1010.8
20260901035517 51 0 0.0 7.0 0.00 0.00 0.00 84 1011.0
20260901035015 50 0 0.0 7.0 0.00 0.00 0.00 83 1011.0
20260901034539 51 0 0.0 0.0 0.00 0.00 0.00 83 1010.9
20260901034016 51 0 0.0 0.0 0.00 0.00 0.00 83 1011.0
20260901033516 51 0 0.0 0.0 0.00 0.00 0.00 83 1011.1
20260901033039 51 0 0.0 0.0 0.00 0.00 0.00 83 1011.2
20260901032518 51 0 0.0 0.0 0.00 0.00 0.00 83 1011.2
20260901032018 51 0 0.0 0.0 0.00 0.00 0.00 83 1011.3
20260901031532 51 0 0.0 0.0 0.00 0.00 0.00 83 1011.3
20260901031016 51 0 0.0 0.0 0.00 0.00 0.00 83 1011.3
20260901030517 51 0 0.0 0.0 0.00 0.00 0.00 83 1011.4
20260901030033 51 0 0.0 0.0 0.00 0.00 0.00 83 1011.4
20260901025520 51 0 0.0 0.0 0.00 0.00 0.00 83 1011.4
20260901025019 51 0 0.0 0.0 0.00 0.00 0.00 83 1011.5
20260901024537 51 0 0.0 0.0 0.00 0.00 0.00 83 1011.6
20260901024019 51 0 0.0 2.0 0.00 0.00 0.00 83 1011.6
20260901023518 51 0 0.0 2.0 0.00 0.00 0.00 83 1011.7
20260901023034 51 0 0.0 0.0 0.00 0.00 0.00 83 1011.7
20260901022518 51 0 0.0 0.0 0.00 0.00 0.00 83 1011.6
20260901022019 50 0 0.0 3.0 0.00 0.00 0.00 83 1011.7
20260901021538 50 0 0.0 3.0 0.00 0.00 0.00 83 1011.7
20260901021016 50 0 0.0 1.0 0.00 0.00 0.00 82 1011.8
20260901020518 50 0 0.0 3.0 0.00 0.00 0.00 81 1011.7
20260901020055 51 0 0.0 4.0 0.00 0.00 0.00 80 1011.7
20260901015516 51 0 0.0 4.0 0.00 0.00 0.00 80 1011.9
20260901015017 51 0 0.0 4.0 0.00 0.00 0.00 82 1012.0
20260901014530 50 0 0.0 4.0 0.00 0.00 0.00 82 1011.9
20260901014016 50 0 0.0 7.0 0.00 0.00 0.00 83 1012.0
20260901013517 50 0 0.0 7.0 0.00 0.00 0.00 84 1012.0
20260901013041 49 0 0.0 1.0 0.00 0.00 0.00 83 1012.1
20260901012516 49 0 0.0 0.0 0.00 0.00 0.00 83 1012.1
20260901012019 49 0 0.0 0.0 0.00 0.00 0.00 82 1012.2
20260901011539 50 0 0.0 0.0 0.00 0.00 0.00 82 1012.1
20260901011018 50 0 0.0 0.0 0.00 0.00 0.00 83 1012.1
20260901010517 50 0 0.0 0.0 0.00 0.00 0.00 82 1012.0
20260901010032 50 0 0.0 0.0 0.00 0.00 0.00 82 1012.0
20260901005519 50 0 0.0 0.0 0.00 0.00 0.00 82 1012.1
20260901005017 50 0 0.0 0.0 0.00 0.00 0.00 82 1012.0
20260901004536 50 0 0.0 0.0 0.00 0.00 0.00 82 1012.0
20260901004019 50 0 0.0 2.0 0.00 0.00 0.00 83 1012.1
20260901003519 50 0 0.0 2.0 0.00 0.00 0.00 82 1012.0
20260901003036 50 0 0.0 0.0 0.00 0.00 0.00 83 1012.1
20260901002516 50 0 0.0 0.0 0.00 0.00 0.00 82 1012.2
20260901002018 50 0 0.0 0.0 0.00 0.00 0.00 82 1012.3
20260901001534 50 0 0.0 0.0 0.00 0.00 0.00 82 1012.2
20260901001016 50 0 0.0 0.0 0.00 0.00 0.00 81 1012.2
20260901000514 50 0 0.0 0.0 0.00 0.00 0.00 81 1012.3
20260901000039 50 0 0.0 0.0 0.00 0.00 0.00 81 1012.2
20260831235519 50 0 0.0 0.0 0.00 0.01 0.00 81 1012.2
20260831235018 50 0 0.0 0.0 0.00 0.01 0.00 81 1012.4
20260831234533 51 0 0.0 0.0 0.00 0.01 0.00 81 1012.3
20260831234019 50 0 0.0 1.0 0.00 0.01 0.00 80 1012.4
20260831233518 50 0 0.0 2.0 0.00 0.01 0.00 80 1012.3
20260831233043 50 0 0.0 2.0 0.00 0.01 0.00 80 1012.3
20260831232516 50 0 0.0 2.0 0.00 0.01 0.00 80 1012.4
20260831232015 51 249 0.0 4.0 0.00 0.01 0.00 80 1012.5
20260831231531 51 0 0.0 4.0 0.00 0.01 0.00 80 1012.5
20260831231016 51 250 0.0 0.0 0.00 0.01 0.00 80 1012.6
20260831230516 51 0 0.0 0.0 0.00 0.01 0.00 80 1012.6
20260831230032 51 0 0.0 0.0 0.00 0.01 0.00 80 1012.6
20260831225516 51 0 0.0 0.0 0.00 0.01 0.01 80 1012.6
20260831225017 51 0 0.0 0.0 0.00 0.01 0.01 80 1012.6
20260831224532 51 0 0.0 0.0 0.00 0.01 0.01 79 1012.6
20260831224015 52 0 0.0 0.0 0.00 0.01 0.01 79 1012.7
20260831223515 52 0 0.0 0.0 0.00 0.01 0.01 79 1012.6
20260831223034 52 0 0.0 0.0 0.00 0.01 0.01 79 1012.7
20260831222515 52 0 0.0 0.0 0.00 0.01 0.01 78 1012.7
20260831222016 52 0 0.0 0.0 0.00 0.01 0.01 77 1012.7
20260831221539 52 0 0.0 0.0 0.00 0.01 0.01 77 1012.8
20260831221016 52 0 0.0 0.0 0.00 0.01 0.01 77 1012.8
20260831220518 52 0 0.0 0.0 0.00 0.01 0.01 78 1012.8
20260831220036 52 0 0.0 0.0 0.00 0.01 0.01 77 1012.8
20260831215517 52 0 0.0 0.0 0.00 0.01 0.01 77 1012.8
20260831215017 52 0 0.0 0.0 0.00 0.01 0.01 77 1012.8
20260831214533 53 0 0.0 0.0 0.00 0.01 0.01 77 1012.7
20260831214017 53 0 0.0 0.0 0.00 0.01 0.01 76 1012.7
20260831213516 53 0 0.0 0.0 0.00 0.01 0.01 76 1012.6
20260831213038 53 0 0.0 1.0 0.00 0.01 0.01 76 1012.7
20260831212526 53 0 0.0 3.0 0.00 0.01 0.01 76 1012.5
20260831212020 53 0 0.0 4.0 0.00 0.01 0.01 76 1012.6
20260831211531 53 0 0.0 4.0 0.00 0.01 0.01 76 1012.6
20260831211017 53 0 0.0 3.0 0.00 0.01 0.01 76 1012.5
20260831210517 53 0 0.0 3.0 0.00 0.01 0.01 76 1012.5